FW7372 Weather Reports


time (UTC)temp
C
wind
direction
speed
KPH
gust
KPH
rain 1hr
cm
rain 24hr
cm
rain mn
cm
humidity
%
barometer
mb
20240715211055 28 40 12.9 20.9 0.00 0.00 0.00 77 1025.2
20240715210554 28 43 12.9 20.9 0.00 0.00 0.00 77 1025.0
20240715210054 28 44 12.9 20.9 0.00 0.00 0.00 77 1024.9
20240715205553 28 44 14.5 20.9 0.00 0.00 0.00 77 1024.9
20240715205052 28 31 12.9 20.9 0.00 0.00 0.00 76 1024.8
20240715204551 28 42 14.5 20.9 0.00 0.00 0.00 76 1025.0
20240715204050 29 47 12.9 20.9 0.00 0.00 0.00 75 1025.0
20240715203549 29 41 12.9 20.9 0.00 0.00 0.00 74 1025.0
20240715203048 29 33 12.9 20.9 0.00 0.00 0.00 75 1024.7
20240715201515 29 42 11.3 24.1 0.00 0.00 0.00 74 1024.8
20240715200459 29 37 11.3 22.5 0.00 0.00 0.00 75 1024.7
20240715195958 29 43 12.9 22.5 0.00 0.00 0.00 74 1024.8
20240715195457 29 38 14.5 22.5 0.00 0.00 0.00 73 1024.8
20240715194956 29 32 11.3 22.5 0.00 0.00 0.00 74 1024.7
20240715193939 30 36 11.3 22.5 0.00 0.00 0.00 75 1024.9
20240715193438 29 34 12.9 22.5 0.00 0.00 0.00 76 1024.7
20240715192937 30 44 12.9 22.5 0.00 0.00 0.00 75 1024.8
20240715192436 30 38 14.5 22.5 0.00 0.00 0.00 74 1024.8
20240715191934 30 38 12.9 22.5 0.00 0.00 0.00 74 1025.0
20240715191433 30 49 12.9 22.5 0.00 0.00 0.00 74 1024.8
20240715190933 30 47 11.3 25.7 0.00 0.00 0.00 75 1024.9
20240715190432 30 36 14.5 25.7 0.00 0.00 0.00 73 1024.9
20240715185932 30 31 14.5 20.9 0.00 0.00 0.00 72 1025.1
20240715185431 30 37 14.5 20.9 0.00 0.00 0.00 72 1025.1
20240715184931 30 53 11.3 24.1 0.00 0.00 0.00 72 1025.3
20240715183915 30 37 14.5 22.5 0.00 0.00 0.00 71 1025.1
20240715182859 30 42 14.5 22.5 0.00 0.00 0.00 71 1025.2
20240715182358 30 37 11.3 22.5 0.00 0.00 0.00 72 1025.2
20240715181858 30 34 12.9 22.5 0.00 0.00 0.00 73 1025.1
20240715181357 30 42 14.5 22.5 0.00 0.00 0.00 72 1025.5
20240715180858 30 33 14.5 22.5 0.00 0.00 0.00 72 1025.2
20240715180356 30 29 14.5 22.5 0.00 0.00 0.00 72 1025.6
20240715175856 30 43 12.9 22.5 0.00 0.00 0.00 71 1025.5
20240715175356 30 28 16.1 22.5 0.00 0.00 0.00 71 1025.6
20240715174856 30 41 11.3 22.5 0.00 0.00 0.00 71 1025.8
20240715173324 31 24 14.5 25.7 0.00 0.00 0.00 71 1025.6
20240715172824 31 37 14.5 25.7 0.00 0.00 0.00 70 1025.8
20240715172322 31 51 12.9 22.5 0.00 0.00 0.00 71 1025.9
20240715171822 31 37 12.9 22.5 0.00 0.00 0.00 70 1025.9
20240715171322 31 45 12.9 22.5 0.00 0.00 0.00 69 1025.9
20240715170820 31 34 11.3 22.5 0.00 0.00 0.00 69 1026.2
20240715165805 31 52 11.3 20.9 0.00 0.00 0.00 70 1026.1
20240715164749 31 41 12.9 20.9 0.00 0.00 0.00 68 1026.2
20240715163732 31 51 12.9 22.5 0.00 0.00 0.00 69 1025.9
20240715163233 31 32 12.9 22.5 0.00 0.00 0.00 69 1026.2
20240715162732 31 42 12.9 22.5 0.00 0.00 0.00 70 1026.3
20240715162232 31 27 14.5 22.5 0.00 0.00 0.00 69 1026.1
20240715161216 31 37 12.9 22.5 0.00 0.00 0.00 71 1026.2
20240715160714 31 34 12.9 22.5 0.00 0.00 0.00 70 1026.2
20240715160215 31 35 14.5 22.5 0.00 0.00 0.00 71 1026.3
20240715155714 31 60 11.3 24.1 0.00 0.00 0.00 71 1026.3
20240715155214 31 32 12.9 24.1 0.00 0.00 0.00 71 1026.2
20240715154713 31 34 14.5 24.1 0.00 0.00 0.00 71 1026.5
20240715154213 31 38 14.5 24.1 0.00 0.00 0.00 71 1026.2
20240715153712 31 34 12.9 24.1 0.00 0.00 0.00 70 1026.4
20240715153212 31 26 12.9 24.1 0.00 0.00 0.00 72 1026.5
20240715152712 31 27 12.9 24.1 0.00 0.00 0.00 71 1026.2
20240715152212 31 40 12.9 24.1 0.00 0.00 0.00 71 1026.4
20240715151711 31 39 12.9 24.1 0.00 0.00 0.00 71 1026.4
20240715151211 31 33 14.5 24.1 0.00 0.00 0.00 71 1026.2
20240715150710 31 37 12.9 24.1 0.00 0.00 0.00 71 1026.5
20240715150210 31 33 12.9 24.1 0.00 0.00 0.00 70 1026.5
20240715144638 31 38 12.9 19.3 0.00 0.00 0.00 70 1026.6
20240715144138 31 34 14.5 19.3 0.00 0.00 0.00 70 1026.7
20240715143637 31 35 14.5 19.3 0.00 0.00 0.00 70 1026.5
20240715143137 31 27 11.3 19.3 0.00 0.00 0.00 68 1026.2
20240715142636 31 36 11.3 19.3 0.00 0.00 0.00 70 1026.4
20240715142136 31 30 12.9 19.3 0.00 0.00 0.00 69 1026.3
20240715141635 31 35 12.9 19.3 0.00 0.00 0.00 68 1026.5
20240715135548 31 47 11.3 24.1 0.00 0.00 0.00 70 1026.3
20240715135048 31 47 9.7 24.1 0.00 0.00 0.00 71 1026.5
20240715134547 31 24 11.3 24.1 0.00 0.00 0.00 72 1026.3
20240715134046 31 36 9.7 24.1 0.00 0.00 0.00 71 1026.5
20240715133545 31 48 11.3 24.1 0.00 0.00 0.00 70 1026.9
20240715132015 30 58 11.3 24.1 0.00 0.00 0.00 71 1026.6
20240715131514 30 27 9.7 24.1 0.00 0.00 0.00 71 1026.4
20240715131014 30 30 11.3 24.1 0.00 0.00 0.00 71 1026.7
20240715130513 30 41 12.9 22.5 0.00 0.00 0.00 71 1026.7
20240715130013 30 37 12.9 22.5 0.00 0.00 0.00 72 1026.7
20240715125512 30 45 12.9 22.5 0.00 0.00 0.00 73 1026.6
20240715125012 30 48 11.3 22.5 0.00 0.00 0.00 74 1026.6
20240715124512 30 39 12.9 19.3 0.00 0.00 0.00 73 1026.8
20240715124012 30 40 9.7 20.9 0.00 0.00 0.00 73 1026.5
20240715123511 30 47 12.9 32.2 0.00 0.00 0.00 74 1026.7
20240715122456 30 37 14.5 22.5 0.00 0.00 0.00 74 1026.6
20240715120924 28 58 9.7 20.9 0.00 0.00 0.00 77 1026.3
20240715114837 28 58 8.0 20.9 0.00 0.00 0.00 78 1026.3
20240715114337 28 59 8.0 20.9 0.00 0.00 0.00 77 1026.1
20240715113836 28 59 8.0 20.9 0.00 0.00 0.00 76 1026.3
20240715112821 29 31 14.5 20.9 0.00 0.00 0.00 76 1026.1
20240715112320 29 38 11.3 20.9 0.00 0.00 0.00 78 1026.2
20240715110749 28 36 12.9 20.9 0.00 0.00 0.00 78 1026.0
20240715105733 28 43 11.3 19.3 0.00 0.00 0.00 79 1025.9
20240715105233 28 57 9.7 19.3 0.00 0.00 0.00 79 1026.1
20240715104732 28 59 8.0 19.3 0.00 0.00 0.00 79 1026.1
20240715104232 28 37 8.0 19.3 0.00 0.00 0.00 80 1026.0
20240715103731 27 44 8.0 19.3 0.00 0.00 0.00 80 1025.7
20240715103231 27 49 8.0 19.3 0.00 0.00 0.00 80 1025.8
20240715102731 27 46 8.0 19.3 0.00 0.00 0.00 80 1025.5
20240715102230 27 36 9.7 19.3 0.00 0.00 0.00 80 1025.3
20240715101214 27 32 9.7 19.3 0.00 0.00 0.00 81 1025.3
20240715100714 27 56 4.8 19.3 0.00 0.00 0.00 82 1025.5
20240715100213 27 40 8.0 19.3 0.00 0.00 0.00 81 1025.3
20240715095157 27 69 8.0 19.3 0.00 0.00 0.00 81 1025.4
20240715094657 27 56 11.3 19.3 0.00 0.00 0.00 81 1025.3
20240715094156 27 40 8.0 20.9 0.00 0.00 0.00 82 1025.1
20240715093656 27 31 9.7 20.9 0.00 0.00 0.00 83 1025.2
20240715092640 27 37 12.9 20.9 0.00 0.00 0.00 83 1025.1
20240715092139 27 48 9.7 20.9 0.00 0.00 0.00 83 1024.9
20240715091123 27 31 9.7 20.9 0.00 0.00 0.00 83 1025.0
20240715090623 27 73 8.0 20.9 0.00 0.00 0.00 83 1024.8
20240715090122 27 42 8.0 20.9 0.00 0.00 0.00 83 1024.8
20240715085621 27 35 8.0 20.9 0.00 0.00 0.00 83 1024.8
20240715085121 27 35 9.7 20.9 0.00 0.00 0.00 83 1024.7
20240715084620 27 45 9.7 20.9 0.00 0.00 0.00 83 1024.7
20240715084120 27 47 8.0 20.9 0.00 0.00 0.00 83 1024.8
20240715083619 27 37 9.7 20.9 0.00 0.00 0.00 83 1024.8
20240715083119 27 38 9.7 20.9 0.00 0.00 0.00 83 1024.8
20240715082618 27 40 8.0 19.3 0.00 0.00 0.00 83 1024.7
20240715082118 27 36 12.9 19.3 0.00 0.00 0.00 83 1024.6
20240715081617 27 57 8.0 19.3 0.00 0.00 0.00 83 1024.5
20240715081117 27 40 11.3 19.3 0.00 0.00 0.00 83 1024.4
20240715080101 27 39 11.3 17.7 0.00 0.00 0.00 83 1024.3
20240715075044 27 35 9.7 17.7 0.00 0.00 0.00 83 1024.4
20240715074544 27 41 6.4 17.7 0.00 0.00 0.00 83 1024.7
20240715074043 27 32 8.0 17.7 0.00 0.00 0.00 82 1024.6
20240715073543 27 52 8.0 17.7 0.00 0.00 0.00 83 1024.6
20240715073042 27 36 8.0 17.7 0.00 0.00 0.00 82 1024.5
20240715072542 27 76 8.0 17.7 0.00 0.00 0.00 82 1024.5
20240715072042 27 59 8.0 20.9 0.00 0.00 0.00 82 1024.7
20240715071026 27 50 8.0 22.5 0.00 0.00 0.00 82 1024.8
20240715065454 27 37 11.3 22.5 0.00 0.00 0.00 82 1024.8
20240715064953 27 35 12.9 20.9 0.00 0.00 0.00 83 1024.8
20240715064451 27 45 12.9 20.9 0.00 0.00 0.00 82 1024.8
20240715063950 27 50 11.3 20.9 0.00 0.00 0.00 82 1024.9
20240715063450 27 39 8.0 20.9 0.00 0.00 0.00 81 1024.6
20240715062949 27 43 11.3 20.9 0.00 0.00 0.00 82 1024.8
20240715062449 27 49 9.7 20.9 0.00 0.00 0.00 82 1024.8
20240715061433 27 42 12.9 20.9 0.00 0.00 0.00 82 1024.9
20240715060932 27 40 11.3 20.9 0.00 0.00 0.00 81 1024.8
20240715060432 27 46 11.3 24.1 0.00 0.00 0.00 81 1024.7
20240715055931 27 36 12.9 24.1 0.00 0.00 0.00 82 1025.0
20240715055431 27 40 14.5 24.1 0.00 0.00 0.00 82 1024.9
20240715054930 27 42 11.3 24.1 0.00 0.00 0.00 82 1025.0
20240715054430 27 45 12.9 24.1 0.00 0.00 0.00 82 1024.9
20240715053929 27 51 12.9 24.1 0.00 0.00 0.00 82 1025.2
20240715053429 27 41 12.9 24.1 0.00 0.00 0.00 82 1025.2
20240715052928 27 41 14.5 24.1 0.00 0.00 0.00 81 1025.2
20240715051912 27 38 12.9 24.1 0.00 0.00 0.00 81 1025.3
20240715050341 27 43 16.1 24.1 0.00 0.00 0.00 80 1025.5
20240715045841 27 41 12.9 22.5 0.00 0.00 0.00 80 1025.5
20240715045340 27 39 14.5 22.5 0.00 0.00 0.00 80 1025.7
20240715044839 27 35 12.9 24.1 0.00 0.00 0.00 81 1025.9
20240715043308 27 35 16.1 25.7 0.00 0.00 0.00 82 1025.8
20240715042807 27 38 17.7 24.1 0.00 0.00 0.00 82 1025.7
20240715042307 27 37 17.7 22.5 0.00 0.00 0.00 82 1025.7
20240715041806 27 49 12.9 24.1 0.00 0.00 0.00 82 1025.9
20240715041306 27 35 16.1 24.1 0.00 0.00 0.00 82 1026.1
20240715040805 27 46 16.1 24.1 0.00 0.00 0.00 82 1026.2
20240715040305 27 41 12.9 25.7 0.00 0.00 0.00 82 1026.1
20240715035804 27 37 12.9 25.7 0.00 0.00 0.00 81 1026.3
20240715035307 27 31 16.1 25.7 0.00 0.00 0.00 79 1026.4
20240715034803 27 39 11.3 22.5 0.00 0.00 0.00 79 1026.6
20240715034303 27 36 12.9 24.1 0.00 0.00 0.00 80 1026.4
20240715033247 27 33 12.9 22.5 0.00 0.00 0.00 81 1026.5
20240715032231 27 62 11.3 22.5 0.00 0.00 0.00 81 1026.7
20240715031215 27 28 11.3 22.5 0.00 0.00 0.00 81 1026.8
20240715030714 27 45 9.7 19.3 0.00 0.00 0.00 81 1026.9
20240715025658 27 37 9.7 19.3 0.00 0.00 0.00 80 1026.8
20240715025158 27 31 9.7 19.3 0.00 0.00 0.00 81 1026.8
20240715024657 27 34 11.3 19.3 0.00 0.00 0.00 81 1026.8
20240715024157 27 41 11.3 19.3 0.00 0.00 0.00 82 1026.9
20240715023656 27 31 12.9 19.3 0.00 0.00 0.00 81 1026.9
20240715023157 27 42 9.7 25.7 0.00 0.00 0.00 81 1026.8
20240715021624 27 56 9.7 22.5 0.00 0.00 0.00 83 1026.9
20240715021123 27 38 8.0 22.5 0.00 0.00 0.00 83 1026.7
20240715020107 27 44 14.5 22.5 0.00 0.00 0.00 83 1026.7
20240715015051 27 40 14.5 22.5 0.00 0.00 0.00 82 1026.5
20240715014551 27 38 12.9 22.5 0.00 0.00 0.00 82 1026.6
20240715013535 27 40 14.5 22.5 0.00 0.00 0.00 82 1026.7
20240715012004 27 44 12.9 22.5 0.00 0.00 0.00 81 1026.5
20240715011503 27 41 16.1 22.5 0.00 0.00 0.00 82 1026.4
20240715011003 27 41 14.5 22.5 0.00 0.00 0.00 82 1026.5
20240715010502 27 38 14.5 22.5 0.00 0.00 0.00 83 1026.5
20240715010003 27 39 16.1 22.5 0.00 0.00 0.00 83 1026.5
20240715005502 27 40 11.3 22.5 0.00 0.00 0.00 83 1026.4
20240715004446 27 37 14.5 22.5 0.00 0.00 0.00 82 1026.4
20240715003946 28 40 16.1 22.5 0.00 0.00 0.00 82 1026.3
20240715002930 27 56 12.9 24.1 0.00 0.00 0.00 81 1026.4
20240715002430 27 41 14.5 24.1 0.00 0.00 0.00 82 1026.3
20240715001930 28 43 16.1 24.1 0.00 0.00 0.00 82 1025.9
20240715001429 28 41 16.1 24.1 0.00 0.00 0.00 82 1025.8
20240715000928 28 37 16.1 24.1 0.00 0.00 0.00 82 1026.1
20240715000431 28 49 16.1 24.1 0.00 0.00 0.00 82 1025.9
20240714235928 27 47 17.7 24.1 0.00 0.00 0.00 81 1025.9
20240714235428 28 39 16.1 24.1 0.00 0.00 0.00 82 1026.0
20240714234926 28 41 16.1 24.1 0.00 0.00 0.00 82 1025.9
20240714234426 28 42 16.1 24.1 0.00 0.00 0.00 81 1025.8
20240714233926 28 42 16.1 27.4 0.00 0.00 0.00 81 1025.7
20240714232910 28 50 17.7 25.7 0.00 0.00 0.00 81 1025.7
20240714232410 28 38 16.1 24.1 0.00 0.00 0.00 81 1025.8
20240714231909 28 42 16.1 24.1 0.00 0.00 0.00 81 1025.6
20240714231409 28 43 17.7 24.1 0.00 0.00 0.00 82 1025.7
20240714230908 28 46 16.1 27.4 0.00 0.00 0.00 83 1025.6
20240714230408 28 44 14.5 27.4 0.00 0.00 0.00 84 1025.7
20240714225907 28 36 14.5 24.1 0.00 0.00 0.00 85 1025.5
20240714224850 28 33 14.5 24.1 0.00 0.00 0.00 85 1025.4
20240714224351 28 31 12.9 24.1 0.00 0.00 0.00 85 1025.3
20240714223849 28 33 12.9 24.1 0.00 0.00 0.00 84 1025.1
20240714222329 28 38 11.3 24.1 0.00 0.00 0.00 84 1025.2
20240714221828 28 37 11.3 24.1 0.00 0.00 0.00 84 1025.1
20240714221328 28 34 12.9 24.1 0.00 0.00 0.00 84 1025.2
20240714220312 28 42 11.3 24.1 0.00 0.00 0.00 84 1024.9
20240714215812 28 34 12.9 24.1 0.00 0.00 0.00 83 1025.0
20240714215311 28 33 11.3 24.1 0.00 0.00 0.00 84 1024.8
20240714214811 28 31 11.3 24.1 0.00 0.00 0.00 84 1025.0
20240714213755 28 24 12.9 24.1 0.00 0.00 0.00 83 1024.9
20240714213255 28 38 14.5 24.1 0.00 0.00 0.00 82 1024.9
20240714212754 28 32 12.9 24.1 0.00 0.00 0.00 82 1024.8
20240714212254 28 34 12.9 24.1 0.00 0.00 0.00 81 1024.8